Weather in Kotel'nikovo

Russia / Republic of Crimea     45°21′53″N   34°01′37″E
temp.,
°C
wind,
m/s
gust,
m/s
humid.,
%
clouds,
%
prec.,
mm/h
press.,
hPa
HPBL,
m
3 august, tue
tue300:00+23ssw22700 0.0 101212
03:00+22w11680 0.0 101211
06:00+22ssw33630 0.0 101239
09:00+29wsw44410 0.0 1013683
12:00+34wsw44277 0.0 10121563
15:00+34wsw55260 0.0 10111728
18:00+28n8853100 0.1 1013661
21:00+22e348155 0.1 1014111
4 august, wed
wed400:00+21ene118062 0.0 101513
03:00+21nne228346 0.0 101528
06:00+20ene34835 0.0 101677
09:00+26ene44600 0.0 1016758
12:00+30ne334258 0.0 10162110
15:00+31e433582 0.0 10151853
18:00+29ene4640100 0.0 1015290
21:00+24e47480 0.0 1016118
5 august, thu
thu500:00+22ese3456100 0.0 101645
03:00+22e33555 0.0 101643
06:00+21e34595 0.0 101653
09:00+28e45439 0.0 1015720
12:00+32ene332827 0.0 10142025
15:00+34ene432429 0.0 10122550
18:00+32ene54282 0.0 10111294
21:00+24e37510 0.0 1011126
6 august, fri
fri600:00+22ese35640 0.0 101072
03:00+21e11640 0.0 101011
06:00+21ese22630 0.0 100813
09:00+28e4638100 0.0 1007502
12:00+35e45240 0.0 10051927
15:00+36wsw44210 0.0 10032266
18:00+33nw563016 0.0 10031538
21:00+25wsw34570 0.5 100462
7 august, sat
sat700:00+23sw12690 0.3 100322
03:00+22wsw337377 0.3 100337
06:00+22wsw3371100 0.1 100456
09:00+28wnw3447100 0.1 1004530
12:00+34nw3428100 0.0 10041608
15:00+35wnw5423100 0.0 10052442
18:00+32nw6733100 0.0 10061416
21:00+26wnw385399 0.0 1007178